RH
13 12 12 11 11 10 9 9 9 9 9 8 7 6 6 6 6 5 4 4 5 5 5 5 5 7 12 20 28 24 22 19 18 19 19 20 24 26 30 28 29 35 35 34 32 31 29
13 12 12 11 10 9 9 9 9 10 9 8 7 6 6 6 5 4 5 5 5 6 6 6 7 9 13 18 28 25 22 22 22 21 23 23 29 28 28 32 28 36 37 36 31 30 31
13 12 11 11 10 9 9 8 9 10 9 7 7 7 6 5 5 6 6 6 6 7 8 9 10 13 15 28 26 25 27 27 25 25 28 23 22 24 32 33 36 36 27 26 35 37 32
12 12 11 10 10 9 9 9 9 9 8 7 6 6 6 5 6 7 8 7 8 10 12 14 16 18 23 24 27 27 29 30 29 25 24 22 23 26 28 33 26 38 32 23 25 37 38
12 11 10 10 10 10 10 10 10 9 8 7 6 6 6 6 7 8 8 8 11 12 13 17 21 24 34 32 29 31 28 30 27 28 26 24 23 36 36 30 22 32 21 31 28 41 40
11 10 10 10 10 10 11 11 10 9 8 7 6 6 6 6 7 8 9 9 15 16 15 22 19 22 33 36 28 30 28 27 24 26 36 37 37 44 54 28 18 23 35 34 32 28 38
13 11 10 10 11 11 12 11 10 8 7 7 6 6 6 6 7 10 9 9 16 18 20 30 34 32 33 35 39 37 38 38 37 33 45 42 40 32 28 34 28 38 39 40 36 28 31
14 12 11 12 12 12 13 12 10 8 8 7 6 6 6 6 8 10 9 8 10 16 33 38 38 34 39 42 38 34 38 37 38 47 38 37 32 29 36 40 35 35 35 36 33 33 36
18 15 12 12 13 13 13 13 10 8 7 7 6 6 6 6 10 10 8 10 13 18 32 39 40 35 36 37 37 36 34 41 39 39 42 37 34 34 33 35 34 32 37 32 29 35 33
24 22 18 14 14 13 13 13 12 8 7 6 6 5 6 7 11 10 9 10 14 18 34 31 42 40 32 38 45 38 36 36 41 37 42 38 33 36 36 34 37 34 34 37 39 40 43
42 26 23 19 15 15 14 13 13 10 7 6 5 5 6 7 9 10 10 13 15 28 40 33 42 39 33 38 42 45 40 34 40 43 28 18 38 37 37 32 36 31 39 41 39 45 51
68 52 28 22 18 16 16 14 13 11 8 6 5 5 6 8 10 11 11 16 34 46 33 34 37 34 29 31 36 43 34 29 32 39 37 39 39 40 35 40 39 38 39 45 58 57 80
85 72 54 30 22 18 17 16 14 10 8 6 5 5 5 8 10 11 14 32 38 49 23 30 35 34 31 29 32 40 43 46 36 24 26 28 31 42 41 43 39 40 35 53 44 74 54
94 91 77 57 36 23 19 18 15 11 7 6 5 5 6 8 10 11 15 24 17 25 28 40 38 36 36 30 31 41 49 50 50 45 47 46 41 42 37 44 40 42 36 48 27 43 33
98 99 94 78 59 41 26 20 16 11 7 5 4 5 6 10 13 12 20 35 37 23 35 44 38 35 29 35 33 32 41 52 51 51 31 45 30 35 31 29 34 38 57 45 49 60 81
100 100 100 98 78 61 43 26 17 12 7 4 4 5 9 16 16 18 27 33 27 52 48 37 21 30 31 34 31 34 35 47 50 47 44 46 33 37 36 26 24 35 35 49 57 50 58
100 100 100 100 97 83 62 39 19 12 6 4 4 8 25 20 19 23 29 27 49 50 52 44 34 34 32 35 41 36 32 46 45 44 41 43 43 30 32 34 34 27 37 39 45 56 59
100 100 100 100 100 98 85 54 24 11 6 4 5 15 23 25 21 56 32 53 52 48 49 54 51 48 42 45 46 45 39 46 44 41 44 41 49 53 37 26 24 26 27 38 58 49 57
91 99 100 100 100 100 96 73 29 8 4 4 7 14 26 25 26 36 56 50 51 50 47 50 54 48 48 50 46 50 56 47 37 35 42 36 42 41 27 29 31 28 28 32 49 53 56
94 90 99 100 100 100 100 84 50 13 4 4 9 31 34 30 27 35 51 47 49 47 44 44 48 42 45 53 44 46 66 50 36 35 38 26 35 32 39 33 40 38 34 30 44 74 48
93 99 94 97 100 100 99 96 48 40 17 15 5 20 32 36 30 51 49 48 48 44 44 41 39 45 43 43 50 51 65 55 40 40 40 26 32 34 37 37 40 38 34 36 42 40 55
86 92 100 91 99 100 100 98 99 74 36 8 10 18 35 41 35 44 54 52 50 45 43 41 42 39 39 34 34 40 64 60 54 53 42 43 39 50 54 43 43 47 42 45 41 44 55
75 91 100 99 98 100 100 99 100 95 83 70 36 17 23 45 41 40 39 38 51 43 40 39 38 33 31 36 35 36 37 39 34 58 50 47 45 65 58 56 55 52 78 86 81 88 87
78 87 100 100 100 98 100 100 100 99 99 79 36 26 27 22 40 38 38 43 50 41 41 46 35 31 48 45 40 37 37 40 46 55 43 53 54 65 84 66 74 69 76 76 80 91 97
58 100 95 95 99 100 100 100 100 98 93 50 25 23 24 33 41 46 48 53 50 50 58 55 50 49 45 31 31 31 34 41 51 50 51 49 60 79 80 87 62 84 85 79 80 79 96
15 66 99 100 100 100 100 100 100 93 49 16 10 23 24 30 56 60 49 47 50 59 59 57 46 42 38 38 31 24 25 34 50 67 61 59 75 65 87 96 90 68 70 64 70 97 76
15 14 97 100 100 100 100 100 99 62 22 15 12 16 27 41 78 60 53 47 45 52 64 56 46 44 39 44 35 46 49 44 47 66 84 88 91 88 86 97 88 88 72 62 91 76 74
16 37 100 100 99 100 100 100 100 81 28 17 16 25 31 51 78 67 56 51 49 49 60 57 50 54 61 57 54 67 65 66 62 67 70 79 91 97 96 97 94 67 58 80 76 75 78
80 99 100 99 84 100 100 100 98 66 52 32 27 38 34 27 73 67 65 59 50 48 47 60 58 76 65 83 84 78 72 65 74 83 71 84 78 90 80 86 75 78 78 73 75 77 77
Wind_Speed
2 2 3 4 5 5 6 6 6 7 7 7 8 8 8 9 9 10 10 9 8 7 6 5 4 3 2 1 2 2 2 2 2 2 3 3 3 3 3 2 2 3 1 2 0 3 1
1 1 3 4 5 5 5 5 5 5 5 6 7 8 9 10 11 11 11 11 10 9 7 5 4 2 1 2 1 3 3 3 3 2 2 2 3 4 4 2 3 2 3 7 5 3 1
1 2 4 5 6 6 6 5 5 5 5 6 7 8 8 9 10 11 11 10 9 8 8 4 1 1 2 2 1 2 3 4 3 3 2 3 3 3 2 2 3 1 2 2 6 4 1
3 4 4 4 6 7 7 6 6 6 6 7 7 8 8 10 11 12 11 10 8 7 6 4 3 1 4 3 3 3 3 2 3 3 2 3 3 5 4 2 6 5 5 3 4 2 2
3 4 4 5 5 6 6 7 7 7 7 7 7 8 9 10 11 11 11 10 7 5 4 4 3 2 3 4 4 5 4 3 2 1 2 2 2 4 3 4 4 6 1 3 5 2 3
3 2 3 4 5 5 6 6 6 6 7 7 8 9 9 10 11 11 10 8 4 3 2 2 4 2 3 3 4 5 5 3 2 2 2 3 4 3 4 4 3 2 1 1 2 4 2
4 4 3 2 3 4 5 6 6 6 6 7 8 9 10 10 11 8 9 4 2 2 6 6 4 3 2 2 5 5 5 3 2 3 2 3 5 1 2 3 3 3 1 2 3 3 2
5 4 3 3 3 3 4 5 5 5 5 6 7 8 9 10 9 8 7 2 2 2 4 4 4 4 4 3 2 7 5 2 3 2 1 5 1 2 3 5 3 2 2 4 4 2 2
5 5 5 4 4 5 5 6 6 7 7 7 7 8 9 10 7 8 7 5 2 2 3 3 3 2 2 3 3 6 5 2 4 2 3 4 3 0 2 2 2 2 4 3 4 2 2
4 5 6 6 6 6 7 6 7 8 8 8 7 8 9 9 4 8 5 5 2 1 4 3 2 2 1 2 2 4 4 3 3 1 0 3 2 2 2 1 4 2 3 3 3 2 4
6 6 7 8 7 6 7 8 8 8 8 9 9 8 8 8 6 6 4 3 2 2 4 1 2 1 2 1 1 2 6 2 3 1 3 3 2 1 2 3 4 5 3 3 2 3 2
8 7 7 8 9 8 8 8 9 9 9 9 9 9 8 7 6 5 3 2 1 6 4 1 1 2 2 3 2 3 3 3 2 2 2 4 2 1 2 1 0 1 1 5 4 3 2
11 9 7 7 8 9 9 9 9 9 9 9 9 9 9 8 6 5 3 2 5 4 1 2 2 1 1 1 2 4 4 5 1 3 3 3 1 1 1 2 1 2 4 3 4 1 5
13 12 10 9 8 9 9 9 9 9 9 9 9 8 7 7 5 4 2 5 1 2 5 1 3 2 2 1 1 3 2 2 2 2 2 2 5 2 4 1 2 1 3 4 5 3 4
16 16 13 12 10 9 10 10 9 9 9 8 8 8 6 5 4 2 1 3 5 3 1 5 2 2 1 1 0 1 1 1 0 2 3 3 4 2 4 1 1 2 3 1 2 2 3
18 17 16 15 13 11 11 10 10 9 9 7 7 8 5 4 3 4 4 5 2 2 2 2 4 2 3 1 1 0 1 2 1 2 2 1 4 2 4 1 5 2 3 3 1 4 6
19 20 17 15 15 13 12 11 9 9 8 7 5 4 2 2 3 2 3 5 2 0 1 1 1 1 2 2 5 3 3 0 2 2 1 2 2 2 1 3 1 2 1 2 1 3 4
21 18 20 20 16 16 13 12 11 8 7 6 3 1 4 5 2 1 3 2 0 1 1 1 2 4 5 4 5 4 4 2 2 4 3 0 3 4 4 0 1 2 1 2 3 3 1
22 22 23 23 19 17 13 12 10 8 6 4 3 3 4 9 3 2 1 2 2 2 2 3 4 2 1 5 3 4 3 1 3 3 5 4 1 3 3 2 1 1 2 3 4 3 6
24 24 21 23 24 19 17 13 9 8 5 6 3 2 2 6 2 5 4 3 3 2 1 1 2 2 2 3 1 3 4 1 1 1 3 1 2 5 8 1 2 2 2 3 3 2 5
21 24 24 23 26 21 21 17 12 13 9 7 4 3 3 2 3 3 4 3 3 4 2 3 1 4 5 4 2 4 3 2 1 1 2 2 4 1 2 3 2 5 7 7 10 8 6
20 22 23 19 26 22 20 15 16 16 14 11 2 2 2 2 3 6 4 5 7 1 4 3 3 2 4 3 2 4 5 4 4 2 2 3 1 2 3 4 3 7 8 10 10 7 5
23 20 23 22 22 24 23 17 14 15 17 13 10 9 3 1 3 4 3 2 4 9 1 2 1 3 3 3 4 5 5 4 5 7 6 4 3 2 4 3 4 7 2 1 1 2 3
21 20 21 22 21 24 23 18 16 15 17 17 14 8 6 3 2 3 4 3 2 2 3 2 3 1 3 6 6 4 3 3 4 3 5 5 5 3 3 3 2 1 1 2 2 2 1
21 19 20 24 25 27 24 20 16 15 15 15 16 11 5 2 2 3 5 5 10 7 4 3 3 4 8 4 2 1 2 0 0 2 1 2 3 1 2 2 5 1 2 1 4 4 4
23 24 25 24 24 29 25 22 17 15 16 16 19 15 5 8 1 1 3 4 3 3 2 2 5 6 4 1 1 3 3 0 1 2 6 3 3 3 2 2 4 4 2 2 5 4 2
24 25 24 29 33 32 25 23 17 16 14 16 16 19 13 8 5 4 1 1 4 4 3 3 3 2 3 2 2 2 2 1 2 3 3 2 1 5 5 3 5 3 1 2 4 5 5
21 19 25 34 29 25 26 23 20 16 13 15 17 17 15 8 8 6 5 4 4 5 3 6 3 1 2 2 2 2 2 2 0 1 1 4 3 3 1 2 6 1 1 3 2 3 9
14 20 26 25 17 25 23 21 17 16 14 15 16 17 13 8 13 16 12 8 5 5 6 8 2 3 3 3 0 2 1 1 1 2 1 2 3 3 4 3 1 1 2 1 3 9 13
Wind_Direction
95 62 42 29 25 22 23 22 18 16 13 15 13 4 2 2 355 350 344 344 338 332 323 311 295 272 210 105 66 341 334 318 306 318 351 17 44 88 111 75 68 60 39 0 273 286 278
335 353 359 4 9 6 14 16 17 17 14 12 6 0 1 355 349 347 343 339 337 330 317 308 295 257 188 104 342 337 329 323 332 351 30 64 93 82 91 57 74 14 346 321 330 334 157
257 316 333 346 352 356 2 0 354 0 6 2 1 359 355 351 348 345 344 341 344 343 336 340 324 120 114 108 352 337 344 10 19 33 51 60 74 82 60 63 17 48 25 3 22 343 134
281 311 321 343 350 352 351 351 351 349 357 355 354 352 350 350 349 345 341 344 346 1 12 29 56 100 83 86 38 11 10 12 11 38 56 59 63 94 81 87 20 27 40 61 333 60 49
287 316 324 342 351 350 352 354 351 348 348 349 348 348 348 349 349 345 345 342 349 10 23 26 25 91 75 67 40 29 22 18 1 19 23 47 76 76 82 82 23 19 35 1 325 20 336
258 282 308 337 341 345 348 350 351 346 343 344 345 346 346 346 347 346 349 341 350 5 1 38 54 69 55 14 1 354 333 333 11 23 66 35 48 64 36 71 215 220 98 158 260 313 32
245 258 274 305 332 335 338 340 339 339 339 337 339 344 344 344 347 351 347 338 316 318 32 58 43 75 23 29 41 24 16 55 66 76 75 43 67 232 249 166 127 120 105 264 275 313 39
263 269 272 296 313 318 326 330 324 323 326 330 333 337 338 342 345 350 353 343 24 115 80 67 54 58 61 33 55 34 33 62 61 91 49 25 106 179 129 139 131 137 175 243 271 299 133
280 288 289 283 298 310 319 322 319 316 317 323 328 333 337 339 339 350 10 33 49 60 93 45 58 36 22 28 55 15 26 50 73 90 66 148 166 334 130 136 161 219 189 215 229 336 48
267 275 283 283 290 302 308 311 314 314 316 316 322 329 335 339 339 347 8 15 27 17 72 319 342 9 344 103 64 36 29 58 42 141 218 223 320 150 109 186 138 235 194 168 185 113 229
293 288 282 282 280 287 296 302 307 307 310 315 319 327 333 339 335 349 347 1 8 36 12 287 320 309 10 55 73 5 24 36 122 151 103 258 141 121 167 212 172 211 167 210 210 211 53
289 303 302 291 288 291 299 302 305 306 306 311 315 322 330 333 338 344 338 343 360 43 265 294 321 339 7 18 18 344 28 33 68 104 11 256 285 201 192 98 163 105 144 56 52 100 275
278 287 299 301 294 290 294 300 302 305 305 308 313 319 325 329 333 335 329 327 30 131 69 195 232 42 51 279 23 42 20 17 68 34 352 318 191 348 74 164 112 114 69 326 330 351 238
261 273 285 293 303 297 293 296 301 301 301 305 308 310 317 318 318 322 337 35 233 254 202 146 131 109 229 144 7 24 41 356 12 68 123 135 312 27 353 56 159 96 164 174 263 249 269
251 265 270 283 290 296 296 293 290 295 295 300 304 304 303 298 294 271 72 61 225 219 113 146 58 126 262 247 232 59 89 239 354 343 190 144 275 320 56 351 71 137 190 47 306 132 331
247 256 267 272 277 285 293 294 295 295 295 296 304 299 283 275 254 170 87 232 272 23 38 35 222 187 221 207 166 70 194 130 153 356 354 307 310 30 316 14 40 175 125 84 25 263 259
261 265 264 262 270 274 284 290 288 291 290 291 297 286 249 179 158 145 177 232 274 40 43 39 265 274 218 209 178 213 215 130 157 155 84 140 117 274 302 22 143 62 190 47 321 186 231
261 265 267 270 267 270 273 276 279 275 274 276 260 278 202 180 122 92 180 220 202 178 167 245 133 185 188 168 191 226 223 196 176 166 152 218 144 256 239 109 349 6 288 183 169 226 58
255 267 268 272 274 268 267 269 273 274 270 260 259 258 206 182 182 221 251 230 199 177 204 183 182 197 165 197 207 188 176 182 180 171 168 186 200 338 304 77 48 148 170 109 102 103 197
251 248 264 279 264 270 267 253 258 251 246 239 278 312 195 192 176 139 161 225 214 189 205 202 170 136 133 208 234 192 178 172 138 128 98 149 176 212 251 216 122 221 210 195 153 150 251
265 255 244 265 268 268 272 260 229 229 222 226 210 245 194 233 239 158 165 140 175 231 211 200 278 219 175 205 198 214 111 122 21 165 74 124 228 245 295 262 225 233 240 224 224 235 234
259 261 255 250 260 267 265 259 255 221 205 204 228 230 192 161 149 142 176 216 202 215 146 238 227 174 192 200 198 201 144 188 193 95 123 7 307 64 275 293 309 274 248 238 250 258 260
255 267 258 252 256 266 261 250 252 239 228 207 215 245 260 216 147 125 222 201 201 146 146 59 225 127 166 174 128 126 131 126 174 162 166 161 154 85 266 339 319 275 233 109 126 96 143
257 258 259 255 259 261 249 250 255 242 233 222 192 210 211 231 186 212 158 121 131 149 135 48 70 53 125 126 111 82 73 95 150 104 143 143 136 154 275 339 266 314 173 136 178 212 214
257 255 262 256 260 259 250 245 249 233 223 210 195 197 187 151 185 163 138 120 109 92 90 109 72 128 140 132 67 9 334 221 23 29 145 67 124 193 258 222 318 299 309 143 105 281 195
251 248 253 262 263 257 243 242 231 221 218 211 211 205 179 136 158 109 129 162 137 95 69 81 119 143 151 108 156 223 245 269 201 77 47 88 68 135 127 214 264 236 137 96 129 290 169
253 248 244 253 252 253 235 233 222 213 211 212 210 208 193 125 117 134 20 163 140 120 101 133 179 159 149 115 182 208 260 287 236 189 180 118 93 202 222 240 285 204 137 143 82 251 307
264 235 237 241 244 227 235 230 222 211 205 214 205 196 197 119 94 143 141 133 140 152 145 148 122 211 90 148 176 185 166 210 233 342 203 184 170 209 103 211 270 116 192 198 217 323 319
237 235 233 243 275 232 230 224 206 189 202 216 190 182 181 142 117 105 98 114 133 139 144 156 152 125 138 83 154 92 172 97 124 232 34 236 188 191 185 222 178 203 214 204 330 326 325